DateTimeUTC,F1_A11,F1_S11,BsB_S11,BsG_S11,BsR_S11,BbsB_S11,BbsG_S11,BbsR_S11,BaB_A11,BaG_A11,BaR_A11,Tu_S11,T_S11,Uu_S11,U_S11,P_S11,T1_A11
2021-11-16T09:00:00Z,00040200,21000000,,,,,,,-000.08,-000.03,0000.08,19.1,26.1,,00.0,0636.3,31.0
2021-11-16T09:01:00Z,00040200,21000000,,,,,,,0000.66,0000.37,0000.46,19.2,26.1,,00.0,0636.3,31.0
2021-11-16T09:02:00Z,00040200,21000000,,,,,,,-000.29,0000.17,-000.32,19.1,26.1,,00.0,0636.3,31.0
2021-11-16T09:03:00Z,00040200,61000000,,,,,,,0000.39,0000.02,0000.16,19.1,26.1,,00.0,0636.3,31.0
2021-11-16T09:04:00Z,00040200,41000000,0000.83,0000.66,0000.16,-000.20,0000.11,0000.30,-000.11,0000.03,-000.03,19.2,25.9,,00.0,0637.1,30.9
2021-11-16T09:05:00Z,00040200,01000000,0001.10,0000.36,-000.07,-000.00,0000.29,-000.12,0000.54,0000.66,0000.81,19.2,25.9,,00.0,0637.2,31.0
2021-11-16T09:06:00Z,00040200,01000000,-000.15,0000.07,0000.05,-000.34,-000.15,0000.21,0000.68,0000.44,-000.12,19.3,25.8,,00.0,0637.2,31.0
2021-11-16T09:07:00Z,00040200,01000000,0000.56,0000.44,-000.07,0000.08,0000.08,0000.07,0000.21,-000.16,0000.27,19.3,25.8,,00.0,0637.2,31.0
2021-11-16T09:08:00Z,00040200,01000000,0000.20,0000.35,-000.12,-000.77,0000.26,-000.05,0000.40,0000.42,0000.17,19.3,25.8,,00.0,0637.2,31.0
2021-11-16T09:09:00Z,00040200,01000000,-000.32,0000.19,0000.11,0000.38,0000.15,0000.27,0000.26,0000.55,0000.52,19.4,25.8,,00.0,0637.3,31.0
2021-11-16T09:10:00Z,00040200,01000000,0000.36,0000.32,0000.09,-000.31,-000.04,-000.04,0000.37,0000.13,0000.23,19.4,25.8,,00.0,0637.3,31.0
2021-11-16T09:11:00Z,00040200,01000000,0000.82,0000.14,0000.27,0000.25,-000.37,0000.06,0000.07,0000.15,0000.10,19.4,25.8,,00.0,0637.3,31.0
2021-11-16T09:12:00Z,00040200,01000000,0000.50,0000.20,0000.09,0000.08,0000.42,0000.17,0000.65,0000.77,0000.59,19.4,25.9,,00.0,0637.3,31.0
2021-11-16T09:13:00Z,00040200,01000000,0000.11,0000.24,-000.13,0000.06,0000.05,0000.01,0000.23,0000.18,0000.25,19.5,25.9,,00.0,0637.3,31.0
2021-11-16T09:14:00Z,00040200,01000000,0000.61,0000.24,-000.06,0000.37,-000.15,0000.17,0000.19,0000.37,0000.03,19.5,25.9,,00.0,0637.3,31.0
2021-11-16T09:15:00Z,00040200,01000000,0000.84,0000.51,-000.11,0000.30,0000.12,-000.04,0000.37,0000.02,0000.12,19.5,25.9,,00.0,0637.3,31.0
2021-11-16T09:16:00Z,00040200,01000000,0000.88,0000.48,0000.14,-000.20,-000.22,-000.06,0000.42,0000.58,0000.31,19.5,25.9,,00.0,0637.3,31.0
2021-11-16T09:17:00Z,00040200,01000000,0000.69,0000.10,0000.22,0000.55,0000.22,-000.02,0000.17,-000.30,0000.21,19.4,25.9,,00.0,0637.3,31.0
2021-11-16T09:18:00Z,00040200,01000000,0000.91,0000.37,-000.21,-000.69,0000.23,0000.25,0000.15,0000.57,0000.09,19.4,25.9,,00.0,0637.3,31.0
2021-11-16T09:19:00Z,00040200,01000000,0000.99,0000.59,0000.03,0000.32,0000.28,0000.17,0000.29,-000.07,-000.10,19.3,25.8,,00.0,0637.3,31.0
2021-11-16T09:20:00Z,00040200,01000000,0000.60,0000.35,-000.10,0000.03,0000.05,0000.29,0000.13,0000.51,0000.37,19.2,25.8,,00.0,0637.3,31.0
2021-11-16T09:21:00Z,00040200,01000000,0000.42,0000.29,0000.05,-000.17,-000.07,-000.14,0000.35,-000.02,0000.19,19.3,25.8,,00.0,0637.3,31.0
2021-11-16T09:22:00Z,00040200,01000000,-000.48,0000.52,0000.24,-000.37,0000.23,0000.00,0000.16,0000.35,0000.18,19.3,25.8,,00.0,0637.3,31.0
2021-11-16T09:23:00Z,00040200,01000000,0000.83,0000.40,-000.02,0000.24,0000.05,-000.04,0000.44,0000.42,0000.45,19.3,25.8,,00.0,0637.4,31.0
2021-11-16T09:24:00Z,00040200,01000000,0000.61,0000.46,-000.09,0000.33,-000.04,-000.06,0000.14,0000.34,0000.11,19.4,25.8,,00.0,0637.4,31.0
2021-11-16T09:25:00Z,00040200,01000000,0000.83,0000.50,0000.13,0000.19,0000.12,-000.07,0000.16,0000.04,-000.20,19.4,25.8,,00.0,0637.4,31.0
2021-11-16T09:26:00Z,00040200,01000000,0001.24,0000.19,-000.14,-000.41,0000.01,-000.08,0000.32,0000.00,0000.50,19.4,25.8,,00.0,0637.5,31.0
2021-11-16T09:27:00Z,00040200,01000000,0000.70,0000.14,0000.15,-000.14,0000.32,0000.02,0000.18,0000.55,-000.03,19.4,25.8,,00.0,0637.5,31.0
2021-11-16T09:28:00Z,00040200,01000000,0000.53,0000.43,0000.05,-000.16,-000.05,-000.16,0000.32,-000.06,0000.11,19.5,25.8,,00.0,0637.5,31.0
2021-11-16T09:29:00Z,00040200,01000000,0000.09,0000.15,0000.19,0000.02,0000.02,0000.20,0000.07,0000.51,0000.58,19.5,25.9,,00.0,0637.5,31.0
2021-11-16T09:30:00Z,00040200,01000000,-000.11,0000.10,-000.11,0000.14,0000.22,0000.27,0000.24,0000.26,0000.02,19.5,25.9,,00.0,0637.5,31.0
2021-11-16T09:31:00Z,00040200,01000000,0000.41,0000.26,-000.33,-000.04,0000.27,0000.10,0000.19,-000.06,-000.07,19.6,25.9,,00.0,0637.5,31.0
2021-11-16T09:32:00Z,00040200,01000000,0001.04,0000.22,-000.05,0000.29,0000.26,-000.01,0000.65,0000.23,0000.66,19.5,25.9,,00.0,0637.5,31.0
2021-11-16T09:33:00Z,00040200,01000000,0000.86,0000.38,0000.43,0000.26,-000.01,0000.16,-000.00,0000.27,-000.22,19.5,25.9,,00.0,0637.5,31.0
2021-11-16T09:34:00Z,00040200,01000000,0000.97,0000.15,0000.18,-000.15,0000.06,0000.33,0000.06,0000.35,0000.13,19.4,25.8,,00.0,0637.5,31.0
2021-11-16T09:35:00Z,00040200,01000000,0000.38,0000.01,-000.19,-000.04,0000.08,-000.03,0000.69,0000.32,0000.53,19.4,25.8,,00.0,0637.5,31.0
2021-11-16T09:36:00Z,00040200,01000000,0000.96,0000.15,-000.06,0000.44,0000.11,0000.27,-000.22,0000.27,0000.06,19.4,25.8,,00.0,0637.5,31.0
2021-11-16T09:37:00Z,00040200,01000000,0000.32,0000.02,-000.20,0000.08,-000.03,0000.00,0000.67,-000.01,-000.09,19.4,25.8,,00.0,0637.6,31.0
2021-11-16T09:38:00Z,00040200,01000000,0000.69,0000.19,-000.04,-000.60,0000.02,-000.14,0000.41,0000.42,0000.80,19.4,25.8,,00.0,0637.6,31.0
2021-11-16T09:39:00Z,00040200,01000000,0001.05,0000.34,-000.12,0000.27,0000.13,-000.06,0000.26,0000.28,-000.05,19.5,25.8,,00.0,0637.6,31.0
2021-11-16T09:40:00Z,00040200,01000000,0000.40,0000.40,0000.15,-000.34,-000.15,-000.12,0001.13,0001.20,0000.88,19.5,25.8,,00.0,0637.6,31.0
2021-11-16T09:41:00Z,00040200,01000000,0001.66,0000.91,0000.15,0000.50,0000.20,-000.46,0007.41,0006.60,0005.42,19.5,25.9,,00.0,0637.6,31.0
2021-11-16T09:42:00Z,00040200,01000000,0002.90,0002.74,0001.67,0000.15,0000.54,0000.36,0033.14,0031.11,0025.56,19.6,25.9,,00.0,0637.7,31.0
2021-11-16T09:43:00Z,00040200,01000000,0005.62,0004.40,0002.35,0001.06,0001.03,0000.82,0056.33,0052.44,0042.94,19.6,25.9,,00.0,0637.7,31.0
2021-11-16T09:44:00Z,00040200,01000000,0006.61,0004.44,0002.22,0000.46,0001.16,0000.93,0059.77,0056.32,0046.14,19.5,25.9,,00.0,0637.7,31.0
2021-11-16T09:45:00Z,00040200,01000000,0005.66,0003.76,0002.39,0000.90,0001.15,0000.77,0052.55,0048.96,0040.72,19.5,25.9,,00.0,0637.7,31.0
2021-11-16T09:46:00Z,00040200,01000000,0004.47,0003.63,0002.14,0001.21,0000.78,0000.56,0048.16,0045.44,0037.56,19.4,25.9,,00.0,0637.7,31.0
2021-11-16T09:47:00Z,00140200,01000000,0003.64,0002.86,0001.39,0001.32,0000.81,0000.27,0047.54,0048.15,0036.45,19.3,25.8,,00.0,0637.7,30.9
2021-11-16T09:47:04Z,00140200,01000000,0003.64,0002.86,0001.39,0001.32,0000.81,0000.27,,,,19.3,25.8,,00.0,0637.7,30.9
2021-11-16T09:47:05Z,,01000000,0003.64,0002.86,0001.39,0001.32,0000.81,0000.27,,,,19.3,25.8,,00.0,0637.7,
2021-11-16T09:47:12Z,00000200,01000000,0003.64,0002.86,0001.39,0001.32,0000.81,0000.27,0048.56,0045.05,0034.97,19.3,25.8,,00.0,0637.7,30.8
2021-11-16T09:48:00Z,00000200,01000000,0002.65,0002.17,0001.39,0000.54,0000.45,0000.66,0041.90,0038.16,0029.58,19.2,25.8,,00.0,0637.7,30.8
2021-11-16T09:49:00Z,00000200,01000000,0002.56,0001.22,0000.68,0000.11,0000.19,0000.03,0025.23,0023.15,0018.74,19.1,25.7,,00.0,0637.7,30.8
2021-11-16T09:50:00Z,00000200,01000000,0000.87,0000.74,0000.55,0000.78,0000.09,0000.42,0013.79,0012.90,0009.66,19.1,25.7,,00.0,0637.7,30.8
2021-11-16T09:51:00Z,00000200,01000000,0000.74,0000.74,0000.36,-000.28,0000.03,-000.04,0007.12,0006.54,0005.31,19.1,25.7,,00.0,0637.7,30.8
2021-11-16T09:52:00Z,00000200,01000000,0000.72,0000.31,-000.01,-000.60,-000.16,0000.01,0002.33,0002.18,0001.43,19.1,25.7,,00.0,0637.7,30.8
2021-11-16T09:53:00Z,00000200,01000000,0000.13,0000.24,0000.13,-000.13,0000.14,0000.25,0000.67,0000.46,0000.60,19.1,25.6,,00.0,0637.7,30.8
2021-11-16T09:54:00Z,00000200,01000000,0000.15,0000.52,0000.10,-000.24,-000.06,0000.30,0000.39,0000.64,0000.50,19.2,25.7,,00.0,0637.7,30.8
2021-11-16T09:55:00Z,00000200,01000000,0000.76,0000.50,0000.13,-000.41,0000.44,0000.09,0000.98,0000.14,0000.36,19.2,25.7,,00.0,0637.7,30.8
2021-11-16T09:56:00Z,00000200,01000000,0001.17,0000.41,0000.17,-000.63,0000.27,0000.23,-000.10,0000.44,0000.12,19.2,25.7,,00.0,0637.7,30.8
2021-11-16T09:57:00Z,00000200,41000000,,,,,,,0001.78,0001.51,0001.31,19.2,25.7,,00.0,0637.7,30.8
2021-11-16T09:58:00Z,00000200,61000000,,,,,,,0000.01,-000.03,0000.12,19.0,25.8,,00.0,0636.8,30.8
2021-11-16T09:59:00Z,00000200,21000000,,,,,,,0000.24,0000.24,0000.07,19.0,25.9,,00.0,0636.8,30.9
